Mobile, AL

5:49 PM CDT on September 25, 2016 (GMT -0500)
Mobile Regional

Weather History for KMOB - January, 2014

Change the Weather History Date:

Tuesday, January 14, 2014

  Actual Average Record
Temperature  
Mean Temperature 53 °F 50 °F  
Max Temperature 63 °F 61 °F 78 °F (1971)
Min Temperature 43 °F 40 °F 20 °F (1964)
Degree Days  
Heating Degree Days 12 15  
Month to date heating degree days 280 210  
Since 1 July heating degree days 958 872  
Cooling Degree Days 0 0  
Month to date cooling degree days 0 0  
Year to date cooling degree days 0 0  
Growing Degree Days 3 (Base 50)    
Moisture  
Dew Point 41 °F    
Average Humidity 65    
Maximum Humidity 100    
Minimum Humidity 30    
Precipitation  
Precipitation 0.00 in 0.19 in 1.58 in (1977)
Month to date precipitation 2.31 2.49  
Year to date precipitation 2.31 2.49  
Snow  
Snow 0.00 in 0.00 in - ()
Month to date snowfall 0.0 0.0  
Since 1 July snowfall 0.0 T  
Snow Depth 0.00 in    
Sea Level Pressure  
Sea Level Pressure 30.04 in    
Wind  
Wind Speed 6 mph (WNW)    
Max Wind Speed 13 mph    
Max Gust Speed 21 mph    
Visibility 10 miles    
Events      
T = Trace of Precipitation, MM = Missing Value Source: NWS Daily Summary

Daily Weather History Graph

Daily Weather History Graph

Search for Another Location

Airport or City:

Trip Planner

Search our weather history database for the weather conditions in past years. The results will help you decide how hot, cold, wet, or windy it might be!

Date:

Astronomy

Jan. 14, 2014 Rise Set
Actual Time 6:51 AM CST 5:13 PM CST
Civil Twilight 6:25 AM CST 5:39 PM CST
Nautical Twilight 5:55 AM CST 6:08 PM CST
Astronomical Twilight 5:26 AM CST 6:38 PM CST
Moon 4:16 PM CST (1/14) 5:27 AM CST (1/14)
Length of Visible Light 11h 14m
Length of Day
10h 22m
Waxing Gibbous, 98% of the Moon is Illuminated
Jan 14
Waxing Gibbous
Jan 15
Full
Jan 23
Last Quarter
Jan 30
New
Feb 6
First Quarter

Hourly Weather History & Observations

Time (CST) Temp. Windchill Dew Point Humidity Pressure Visibility Wind Dir Wind Speed Gust Speed Precip Events Conditions
12:07 AM 57.0 °F - 57.0 °F 100% 29.91 in 8.0 mi West 8.1 mph - N/A   Overcast
12:30 AM 57.0 °F - 57.0 °F 100% 29.92 in 10.0 mi WNW 9.2 mph 18.4 mph N/A   Overcast
12:56 AM 55.9 °F - 55.0 °F 97% 29.92 in 10.0 mi NW 9.2 mph - N/A   Scattered Clouds
1:56 AM 54.0 °F - 52.0 °F 93% 29.95 in 10.0 mi NW 9.2 mph - N/A   Mostly Cloudy
2:56 AM 52.0 °F - 50.0 °F 93% 29.97 in 10.0 mi NW 9.2 mph - N/A   Clear
3:56 AM 50.0 °F - 48.9 °F 96% 29.98 in 10.0 mi NW 8.1 mph - N/A   Clear
4:56 AM 48.0 °F - 46.9 °F 96% 30.00 in 10.0 mi NW 5.8 mph - N/A   Clear
5:56 AM 45.0 °F 41.8 °F 45.0 °F 100% 30.02 in 10.0 mi NW 5.8 mph - N/A   Partly Cloudy
6:56 AM 44.1 °F 40.8 °F 44.1 °F 100% 30.05 in 10.0 mi WNW 5.8 mph - N/A   Clear
7:56 AM 46.0 °F 43.1 °F 45.0 °F 96% 30.07 in 10.0 mi NW 5.8 mph - N/A   Clear
8:56 AM 50.0 °F - 43.0 °F 77% 30.08 in 10.0 mi North 10.4 mph - N/A   Clear
9:56 AM 55.0 °F - 39.9 °F 57% 30.10 in 10.0 mi North 9.2 mph - N/A   Clear
10:56 AM 57.9 °F - 37.0 °F 46% 30.08 in 10.0 mi NNE 6.9 mph - N/A   Clear
11:56 AM 59.0 °F - 36.0 °F 42% 30.06 in 10.0 mi Variable 3.5 mph - N/A   Clear
12:56 PM 62.1 °F - 34.0 °F 35% 30.04 in 10.0 mi North 6.9 mph - N/A   Clear
1:56 PM 61.0 °F - 33.1 °F 35% 30.04 in 10.0 mi West 10.4 mph - N/A   Clear
2:56 PM 62.1 °F - 30.9 °F 31% 30.04 in 10.0 mi WNW 8.1 mph - N/A   Clear
3:56 PM 61.0 °F - 33.1 °F 35% 30.05 in 10.0 mi NW 3.5 mph - N/A   Clear
4:56 PM 59.0 °F - 34.0 °F 39% 30.06 in 10.0 mi Calm Calm - N/A   Clear
5:56 PM 48.9 °F - 39.0 °F 69% 30.07 in 10.0 mi Calm Calm - N/A   Clear
6:56 PM 48.9 °F - 39.9 °F 71% 30.09 in 10.0 mi SW 5.8 mph - N/A   Clear
7:56 PM 46.9 °F - 37.0 °F 68% 30.10 in 10.0 mi West 4.6 mph - N/A   Clear
8:56 PM 46.0 °F 43.9 °F 37.0 °F 71% 30.11 in 10.0 mi West 4.6 mph - N/A   Clear
9:56 PM 46.0 °F 43.9 °F 37.0 °F 71% 30.10 in 10.0 mi West 4.6 mph - N/A   Clear
10:56 PM 43.0 °F 40.3 °F 37.0 °F 80% 30.09 in 10.0 mi West 4.6 mph - N/A   Clear
11:56 PM 44.1 °F 41.5 °F 37.9 °F 79% 30.08 in 10.0 mi WSW 4.6 mph - N/A   Clear